Regional Weather Roundup
Issued by NWS Cleveland, OH

Home | Current Version | Previous Version | Graphics & Text | Print | Product List | Glossary On
Versions: 1 2 3 4 5 6 7 8 9 10 11 12 13 14 15 16 17 18 19 20 21 22 23 24 25 26 27 28 29 30 31 32 33 34 35 36 37 38 39 40 41 42 43 44 45 46 47 48 49 50
000
ASUS41 KCLE 271202
RWRCLE
OHIO REGIONAL WEATHER ROUNDUP
NATIONAL WEATHER SERVICE CLEVELAND, OH
700 AM EST MON FEB 27 2017

NOTE: "FAIR" INDICATES FEW OR NO CLOUDS BELOW 12,000 FEET WITH NO
SIGNIFICANT WEATHER AND/OR OBSTRUCTIONS TO VISIBILITY.

OHZ001>008-015>018-024>027-034-035-043-044-271300-
   NORTHWEST OHIO

CITY           SKY/WX    TMP DP  RH WIND       PRES   REMARKS
DEFIANCE       CLEAR     29  20  69 S3        30.19S
FINDLAY        MOCLDY    35  23  61 S9        30.20R WCI  28
TOLEDO EXPRESS CLOUDY    34  21  59 SW7       30.19R WCI  28
TOLEDO EXEC    CLOUDY    33  23  66 S8        30.21R WCI  26
LIMA           CLOUDY    38  26  62 S7        30.20R
$$

OHZ009>014-019>023-028>033-038-089-271300-
   NORTHEAST OHIO

CITY           SKY/WX    TMP DP  RH WIND       PRES   REMARKS
CLE-HOPKINS    CLOUDY    38  18  44 S8        30.24R
CLE-LAKEFRONT  CLOUDY    40  18  41 S13       30.21S
CUY CO. ARPT   CLOUDY    37  19  48 S9        30.22
LORAIN-ELYRIA  PTCLDY    31  19  61 SW6       30.22S WCI  25
ASHTABULA      PTCLDY    34  18  52 S7        30.23R WCI  28
AKRON-CANTON   MOCLDY    37  17  44 S7        30.23R
WOOSTER        CLOUDY    35  21  56 SW5       30.23S
MANSFIELD      CLOUDY    36  22  56 S3        30.22R
YOUNGSTOWN     CLOUDY    33  16  49 S7        30.24R WCI  27
$$

OHZ042-051>053-060>062-070>072-077>081-271300-
  SOUTHWEST OHIO

CITY           SKY/WX    TMP DP  RH WIND       PRES   REMARKS
CINC-COVINGTON LGT RAIN  42  34  73 S5        30.23R
CINC-LUNKEN    LGT RAIN  42  36  79 S8        30.27R
HAMILTON       LGT RAIN  41  29  62 CALM      30.25R
DAYTON         CLOUDY    41  21  44 CALM      30.23R
WRIGHT-PAT AFB NOT AVBL
DAYTON GENERAL CLOUDY    40  24  53 S6        30.22R
WILMINGTON     CLOUDY    39  28  64 S6        30.24R
$$

OHZ036-037-039>041-045>050-054>059-063>069-073>076-082>088-271300-
  CENTRAL AND SOUTHEAST OHIO

CITY           SKY/WX    TMP DP  RH WIND       PRES   REMARKS
COLUMBUS       CLOUDY    42  22  44 SW3       30.25R
OSU AIRPORT    CLOUDY    40  24  53 S5        30.25R
BOLTON FIELD   NOT AVBL
RICKENBACK AFB CLOUDY    39  22  50 S5        30.25R
NEWARK         CLOUDY    39  23  52 S3        30.25R
MARION         CLOUDY    40  23  50 SW9       30.23R
LANCASTER      CLOUDY    42  19  39 S5        30.26R
ZANESVILLE     CLOUDY    37  21  52 S6        30.27R
NEW PHILLY     NOT AVBL
$$



USA.gov is the U.S. government's official web portal to all federal, state and local government web resources and services.